Regional Weather Roundup
Issued by NWS

Home | Current Version | Previous Version | Text Only | Print | Product List | Glossary On
Versions: 1 2 3 4 5 6 7 8 9 10 11 12 13 14 15 16 17 18 19 20 21 22 23 24 25 26 27
000
ASUS46 KPQR 110310
RWROR

OREGON REGIONAL WEATHER ROUNDUP
NATIONAL WEATHER SERVICE PORTLAND OR
700 PM PST SAT DEC 10 2016

NOTE: "FAIR" INDICATES FEW OR NO CLOUDS BELOW 12,000 FEET WITH
NO SIGNIFICANT WEATHER AND/OR OBSTRUCTIONS TO VISIBILITY.

ORZ001>013-110400-
NORTHWEST OREGON


CITY           SKY/WX    TMP DP  RH WIND       PRES   REMARKS
ASTORIA        MOCLDY    50  39  66 W14       29.90R
NEWPORT        MOCLDY    50  43  76 SW14G21   30.02S
PORTLAND       LGT RAIN  43  43 100 S10       29.97S
VANCOUVER WA   MOCLDY    44  40  85 S8        29.96S
SCAPPOOSE      LGT RAIN  35  34  96 CALM      29.96S
HILLSBORO      LGT RAIN  42  40  92 S12       29.95S
AURORA         MOCLDY    43  39  86 S14       29.99S
MCMINNVILLE    RAIN      43  40  89 S7        29.99R FOG
SALEM          CLOUDY    43  39  86 S9        29.99S
CORVALLIS        N/A     45  41  87 S12       30.02S
EUGENE         PTCLDY    42  38  85 S13       30.04R
$$

ORZ021-028-110400-
SOUTHWEST OREGON


CITY           SKY/WX    TMP DP  RH WIND       PRES   REMARKS
NORTH BEND     CLOUDY    46  45  93 S7        30.08S
BROOKINGS      CLOUDY    45  43  93 CALM      30.13S
ROSEBURG       LGT RAIN  45  39  79 CALM      30.09R
MEDFORD        PTCLDY    42  36  79 NE3       30.09R
$$

ORZ014>016-041-110400-
COLUMBIA GORGE


CITY           SKY/WX    TMP DP  RH WIND       PRES   REMARKS
TROUTDALE      CLOUDY    38  37  97 NE7       29.98S WCI  33
THE DALLES     MIX PCPN  25  21  85 CALM      30.01S
$$

ORZ029>031-041-044-049-050-061>064-502-503-505>511-110400-
EASTERN OREGON


CITY           SKY/WX    TMP DP  RH WIND       PRES   REMARKS
REDMOND        CLOUDY    34  24  67 CALM      29.94R
BEND           PTCLDY    34  27  75 SW12G18   29.93R WCI  25
PRINEVILLE     CLOUDY    28  23  80 CALM      29.95R
KLAMATH FALLS  PTCLDY    35  27  72 W14       29.99S WCI  26
LAKEVIEW       CLEAR     28  21  74 CALM      29.98R
HERMISTON      PTCLDY    20  18  92 CALM      29.97R
PENDLETON      PTCLDY    29  24  82 S7        29.92S WCI  22
JOHN DAY       CLOUDY    35  30  84 CALM      29.92S
MEACHAM        MOCLDY    26  22  84 CALM      29.88S
LA GRANDE      PTCLDY    28  21  74 CALM      29.92R
BAKER CITY     FOG       13  12  96 CALM      29.92R VSB 1/4
BURNS          CLEAR     27  24  89 S10       29.92S WCI  17
ROME             N/A     37  31  78 NE6       29.91R WCI  32
ONTARIO        CLOUDY    31  30  96 W6        29.99R FOG     WCI  25
$$




USA.gov is the U.S. government's official web portal to all federal, state and local government web resources and services.